[[{"header":{"parameterUnit":"m.s-1","parameterCategory":2,"la1":30.2991,"la2":30.254,"lo1":-89.0895,"lo2":-89.0444,"dy":0.0017,"dx":0.0017,"nx":28,"ny":28,"refTime":"2023-07-25T03:00:00:Z","depth":"0","parameterNumber":2,"parameterNumberName":"U-component_of_CURRENTS"},"data":[0,0,0,0,0,0,0,0,0,0,0,0,0,0,0,0,0,0,0,0,0,0,0,0,0,0,0,0,0,0,0,0,0,0,0,0,0,0,0,0,0,0,0,0,0,0,0,0,0,0,0,0,0,0,0,0,0,0,0.3581,0.3582,0,0.3684,0.3685,0.3686,0.3696,0.3695,0.3694,0.3693,0.3782,0.3786,0.3789,0,0,0,0,0,0,0,0,0,0,0,0,0,0.3451,0.3453,0.3581,0.3582,0.3584,0.3684,0.3685,0.3686,0.3696,0.3694,0.3693,0.3692,0.3781,0.3785,0.3789,0,0,0,0,0,0,0,0,0,0,0,0,0,0.3525,0.3453,0.3581,0.3601,0.3604,0.3683,0.3685,0.3687,0.3696,0.3694,0.3693,0.3692,0.378,0.3785,0.379,0.3851,0,0,0.3805,0.3807,0,0,0,0,0,0,0,0,0.3521,0.3529,0.3597,0.36,0.3603,0.3676,0.3672,0.3741,0.3696,0.366,0.3693,0.3691,0.3747,0.3755,0.3777,0.3855,0.3859,0.3805,0.3809,0.3811,0.3812,0,0,0,0,0,0,0,0.3515,0.3525,0.3621,0.3598,0.3602,0.3625,0.3633,0.3686,0.371,0.3663,0.3664,0.3678,0.3749,0.3772,0.3779,0.386,0.3805,0.381,0.3813,0.3815,0.3995,0.3997,0,0,0,0,0,0,0.3504,0.3521,0.3618,0.3624,0.3558,0.3628,0.3638,0.3653,0.371,0.3717,0.3679,0.3678,0.3764,0.3773,0.3782,0.3819,0.3811,0.3815,0.3818,0.3993,0.3996,0.3998,0,0,0,0,0,0,0.35,0.3511,0.3613,0.3575,0.3589,0.3632,0.365,0.3656,0.3674,0.3722,0.3729,0.3689,0.3763,0.3775,0.3824,0.3824,0.3818,0.3822,0.3991,0.3994,0.3997,0.3918,0,0,0,0,0,0,0.3496,0.351,0.3518,0.3574,0.3591,0.3647,0.3652,0.3659,0.3685,0.3685,0.3734,0.374,0.3763,0.3817,0.3829,0.383,0.3826,0.3989,0.3993,0.3996,0.3918,0.3917,0.3917,0,0,0,0,0,0.3491,0.3501,0.3518,0.353,0.3601,0.3647,0.3658,0.3682,0.3687,0.3693,0.3731,0.3739,0.3847,0.3822,0.3836,0.3839,0.3987,0.3992,0.3995,0.3918,0.3917,0.3917,0,0,0,0,0,0,0.3444,0.3505,0.3524,0.3551,0.3592,0.3648,0.3656,0.3685,0.3722,0.3716,0.3761,0.3771,0.3813,0.3854,0.3825,0.3908,0.392,0.3927,0.3857,0.3857,0.3856,0.3823,0.383,0,0,0,0,0,0.3442,0.3461,0.3524,0.3541,0.356,0.3612,0.3635,0.3654,0.3697,0.3711,0.3748,0.3797,0.3847,0.387,0.3916,0.3965,0.3995,0.3982,0.3982,0.398,0.3968,0.402,0.4022,0.4011,0.4011,0.4011,0,0,0.3425,0.3462,0.3471,0.3532,0.3562,0.3586,0.362,0.3646,0.3663,0.3717,0.3743,0.3793,0.3862,0.3904,0.3928,0.3932,0.4003,0.3985,0.3983,0.3972,0.4025,0.4025,0.4025,0.4014,0.4013,0.4013,0,0,0.3396,0.3435,0.344,0.3476,0.3525,0.356,0.3568,0.3626,0.3643,0.369,0.3731,0.378,0.3858,0.3898,0.3932,0.3968,0.3996,0.3993,0.3958,0.4009,0.4009,0.4009,0.4045,0.4049,0.3992,0.3992,0.3992,0,0.3371,0.3398,0.3447,0.3465,0.3487,0.3545,0.3555,0.359,0.3655,0.3671,0.3683,0.3798,0.3851,0.3907,0.3919,0.3959,0.3991,0.3943,0.4002,0.4003,0.4005,0.4042,0.4047,0.3989,0.3989,0.3989,0.399,0,0.3355,0.3376,0.3379,0.342,0.3448,0.3467,0.3522,0.3545,0.3579,0.3617,0.3672,0.375,0.3818,0.3849,0.3893,0.3941,0.396,0.3988,0.3987,0.4,0.404,0.4047,0.3984,0.3985,0.3986,0.3987,0,0,0.3302,0.3357,0.3358,0.3366,0.3429,0.3445,0.347,0.3513,0.3521,0.3584,0.3604,0.37,0.3743,0.3788,0.3854,0.3898,0.3942,0.3943,0.3948,0.3948,0.4044,0.4022,0.4028,0.3975,0.3976,0.3977,0.4064,0,0.3274,0.3288,0.333,0.3332,0.3343,0.3398,0.3416,0.3457,0.3499,0.3531,0.3609,0.3663,0.3722,0.376,0.3812,0.392,0.3958,0.3915,0.4059,0.4063,0.4016,0.4034,0.4022,0.4095,0.4071,0.4072,0.4073,0,0.325,0.3263,0.3262,0.329,0.3298,0.3308,0.3337,0.3365,0.3427,0.3461,0.352,0.3589,0.3682,0.3723,0.388,0.3851,0.3937,0.4006,0.4012,0.4019,0.4053,0.4085,0.4109,0.3973,0.4084,0.4083,0.4083,0,0.3186,0.3215,0.3207,0.322,0.3261,0.3262,0.3288,0.3338,0.3354,0.3424,0.3442,0.3553,0.3615,0.3737,0.3886,0.3896,0.4035,0.4074,0.4124,0.4124,0.4155,0.4155,0.4037,0.416,0.416,0.416,0.4159,0,0.3148,0.3137,0.3174,0.3168,0.3151,0.3205,0.3198,0.3236,0.3287,0.3301,0.3406,0.344,0.3621,0.3724,0.3862,0.4007,0.4025,0.4113,0.4145,0.4129,0.4126,0.4044,0.3966,0.4163,0.4162,0.4162,0.4161,0,0.3074,0.3103,0.3089,0.3116,0.3119,0.3107,0.3139,0.3141,0.3201,0.3223,0.3248,0.3369,0.3517,0.3675,0.3874,0.397,0.4022,0.4155,0.4111,0.4135,0.4059,0.398,0.3784,0.3712,0.4242,0.4242,0.4242,0,0.303,0.3019,0.3031,0.302,0.3028,0.3027,0.3028,0.3088,0.3099,0.3178,0.3185,0.3316,0.3406,0.3667,0.3889,0.4107,0.3985,0.418,0.4196,0.4034,0.397,0.3787,0.3727,0.4218,0.4218,0.4218,0.4218,0,0.294,0.2953,0.2948,0.2929,0.292,0.2912,0.2926,0.292,0.2993,0.3017,0.3069,0.3143,0.3414,0.3609,0.3875,0.4048,0.3989,0.4181,0.404,0.3948,0.3716,0.3671,0.4162,0.4216,0.4216,0.4217,0.4217,0.4217,0.2867,0.2845,0.2846,0.2824,0.2813,0.2793,0.2762,0.2793,0.2794,0.2812,0.2939,0.3023,0.3348,0.3743,0.3886,0.4077,0.3968,0.4048,0.3972,0.3804,0.3686,0.4146,0.4212,0.4212,0.4212,0.4212,0.4212,0,0.2762,0.2755,0.2739,0.2703,0.2664,0.2695,0.2681,0.2643,0.2613,0.2694,0.2742,0.3007,0.3272,0.358,0.3916,0.3868,0.381,0.3762,0.3516,0.3482,0.395,0.3902,0.3868,0.3868,0.3868,0.3868,0.3868,0.3869,0.2699,0.2653,0.2654,0.2561,0.2541,0.2462,0.2439,0.2402,0.2436,0.2456,0.2546,0.2671,0.301,0.3376,0.3554,0.3589,0.3342,0.3209,0.3108,0.346,0.348,0.3499,0.3433,0.3301,0.33,0.2615,0.2609,0.2605]},{"header":{"parameterUnit":"m.s-1","parameterCategory":2,"la1":30.2991,"la2":30.254,"lo1":-89.0895,"lo2":-89.0444,"dy":0.0017,"dx":0.0017,"nx":28,"ny":28,"refTime":"2023-07-25T03:00:00:Z","depth":"0","parameterNumber":3,"parameterNumberName":"V-component_of_CURRENTS"},"data":[0,0,0,0,0,0,0,0,0,0,0,0,0,0,0,0,0,0,0,0,0,0,0,0,0,0,0,0,0,0,0,0,0,0,0,0,0,0,0,0,0,0,0,0,0,0,0,0,0,0,0,0,0,0,0,0,0,0,0.0004,0.0004,0,0.0004,0.0004,0.0004,-0.0031,-0.0032,-0.0033,-0.0034,-0.0068,-0.0068,-0.0068,0,0,0,0,0,0,0,0,0,0,0,0,0,-0.0,-0.0,0.0004,0.0004,0.0004,0.0004,0.0004,0.0004,-0.0031,-0.0032,-0.0034,-0.0035,-0.0068,-0.0068,-0.0068,0,0,0,0,0,0,0,0,0,0,0,0,0,0.0001,-0.0,0.0004,-0.0014,-0.0015,0.0004,0.0004,0.0004,-0.0031,-0.0032,-0.0034,-0.0035,-0.0068,-0.0068,-0.0068,-0.004,0,0,-0.0069,-0.0069,0,0,0,0,0,0,0,0,0.0001,0.0001,-0.0011,-0.0012,-0.0014,-0.0015,-0.001,-0.0013,-0.0031,-0.0025,-0.0034,-0.0036,-0.0053,-0.0054,-0.005,-0.0042,-0.0043,-0.0069,-0.0069,-0.0069,-0.0069,0,0,0,0,0,0,0,0.0001,0.0001,0.0004,-0.0011,-0.0013,-0.0013,-0.0014,-0.001,-0.0031,-0.0025,-0.0028,-0.0028,-0.0054,-0.005,-0.0052,-0.0044,-0.0069,-0.0069,-0.0069,-0.0069,0.001,0.0012,0,0,0,0,0,0,0.0001,0.0001,0.0004,0.0004,-0.001,-0.0012,-0.0013,-0.0013,-0.0031,-0.0034,-0.0027,-0.003,-0.0049,-0.0051,-0.0053,-0.002,-0.0069,-0.0069,-0.0069,0.0008,0.001,0.0013,0,0,0,0,0,0,0.0001,0.0001,0.0004,0.0002,0.0003,-0.001,-0.001,-0.0013,-0.0011,-0.0031,-0.0036,-0.0023,-0.0051,-0.0053,-0.0035,-0.0022,-0.0069,-0.0069,0.0005,0.0009,0.0011,0.0046,0,0,0,0,0,0,0.0001,0.0001,0.0003,0.0002,0.0003,0.0018,-0.0008,-0.0012,-0.0009,-0.0013,-0.0029,-0.0034,-0.0052,-0.0035,-0.0035,-0.0022,-0.0069,0.0003,0.0007,0.001,0.0042,0.005,0.0057,0,0,0,0,0,0.0001,0.0002,0.0003,0.0003,0.0005,0.0019,0.002,0.0005,-0.0007,0.0001,-0.0002,-0.0033,-0.001,-0.0033,-0.0034,-0.0021,0.0001,0.0006,0.001,0.0039,0.0049,0.0057,0,0,0,0,0,0,-0.0004,-0.0001,-0.0001,0.0,0.0013,0.0013,0.0014,0.0013,0.0018,0.0012,-0.0007,-0.0011,0.001,0.0002,-0.0022,0.0019,-0.0009,-0.0004,0.0014,0.0022,0.0029,0.0022,-0.0069,0,0,0,0,0,0.0,0.0001,0.0011,0.0013,0.002,0.0023,0.0026,0.0023,0.0027,0.0027,0.002,0.0021,0.0032,0.0032,0.0039,0.0061,0.0042,0.0072,0.008,0.0085,0.0083,0.0079,0.0084,0.0028,0.0028,0.0028,0,0,-0.0003,-0.0001,-0.0002,0.0013,0.0018,0.0036,0.0021,0.0031,0.0046,0.0024,0.0042,0.0045,0.0047,0.007,0.0079,0.0061,0.0095,0.0091,0.0096,0.009,0.0084,0.0089,0.0094,0.0031,0.0031,0.003,0,0,-0.0006,-0.0002,0.0002,0.0019,0.0035,0.0043,0.005,0.0063,0.0067,0.0095,0.0085,0.0102,0.0115,0.0119,0.0122,0.0179,0.0136,0.0184,0.0206,0.0202,0.0206,0.0209,0.0195,0.0196,0.0183,0.0183,0.0183,0,-0.001,0.0002,0.0007,0.0024,0.004,0.005,0.007,0.0084,0.0102,0.0114,0.0104,0.0142,0.0138,0.0169,0.0187,0.0191,0.0178,0.0166,0.0208,0.021,0.0213,0.0197,0.0198,0.0185,0.0185,0.0185,0.0185,0,-0.0003,0.0014,0.002,0.0046,0.0066,0.0085,0.011,0.0131,0.0141,0.0154,0.019,0.0197,0.0214,0.0224,0.0218,0.0244,0.0225,0.0216,0.0176,0.022,0.0202,0.0202,0.0189,0.0188,0.0187,0.0187,0,0,-0.0029,0.0015,0.0018,0.0043,0.0081,0.0099,0.0134,0.017,0.0193,0.0215,0.0244,0.027,0.027,0.0276,0.0276,0.0276,0.0281,0.0252,0.0251,0.022,0.0263,0.0247,0.0245,0.0272,0.0273,0.0273,0.0243,0,-0.0022,0.0013,0.0035,0.0079,0.0106,0.0136,0.0169,0.0204,0.0229,0.0262,0.0277,0.0304,0.0292,0.0301,0.0301,0.0295,0.0283,0.0289,0.0241,0.0239,0.0205,0.0246,0.0291,0.0268,0.0243,0.0243,0.0243,0,-0.0019,0.0008,0.0048,0.0108,0.0121,0.0148,0.0205,0.0237,0.0284,0.0303,0.0329,0.0339,0.036,0.0336,0.0328,0.0331,0.0296,0.028,0.0279,0.0249,0.0224,0.0222,0.0268,0.0182,0.0243,0.0243,0.0243,0,-0.0033,0.002,0.0053,0.0074,0.0137,0.0161,0.0194,0.0245,0.028,0.0325,0.0351,0.0373,0.0387,0.0361,0.0339,0.0327,0.0319,0.0297,0.0246,0.0244,0.0265,0.0264,0.0206,0.0271,0.0271,0.0271,0.0271,0,-0.0028,-0.0,0.0048,0.0069,0.0113,0.0157,0.0205,0.0242,0.0297,0.0345,0.0366,0.0405,0.0392,0.0392,0.0352,0.0312,0.0327,0.0254,0.024,0.028,0.0281,0.0192,0.0117,0.027,0.027,0.027,0.027,0,-0.0042,-0.0012,0.0031,0.009,0.0109,0.0139,0.021,0.0251,0.0297,0.0359,0.0375,0.0428,0.0438,0.0417,0.0384,0.0331,0.0237,0.0263,0.0308,0.03,0.0158,0.0084,0.0007,-0.0073,0.0196,0.0196,0.0195,0,-0.0045,-0.0026,0.0034,0.0061,0.0089,0.0138,0.0179,0.0241,0.0289,0.0379,0.0413,0.0447,0.0499,0.0454,0.0385,0.0317,0.022,0.0269,0.0252,0.0159,0.0065,0.0033,-0.0032,0.0295,0.0296,0.0296,0.0296,0,-0.0048,-0.003,0.0008,0.0059,0.0102,0.0159,0.0221,0.0261,0.0344,0.0406,0.0494,0.0545,0.0526,0.0526,0.0432,0.0358,0.0197,0.027,0.0175,0.0136,0.0098,0.0013,0.0291,0.03,0.0299,0.0299,0.0299,0.0299,-0.0054,-0.0029,0.0019,0.007,0.0121,0.0192,0.0255,0.033,0.0422,0.0569,0.0579,0.0737,0.071,0.0612,0.0439,0.0229,0.0183,0.0175,0.0092,0.0068,-0.0007,0.0265,0.0255,0.0255,0.0254,0.0254,0.0253,0,-0.0056,-0.0018,0.0031,0.0104,0.0169,0.0197,0.03,0.0391,0.0517,0.069,0.0798,0.1005,0.086,0.0698,0.0419,0.0153,0.0032,0.0001,-0.0026,-0.009,0.0172,0.0179,0.0152,0.0152,0.0152,0.0152,0.0152,0.0153,-0.0052,-0.0006,0.0029,0.0135,0.0195,0.0313,0.0386,0.0525,0.0687,0.0995,0.1234,0.1393,0.1467,0.0757,0.025,0.0043,-0.0197,-0.0235,-0.0386,-0.0189,-0.0178,-0.0168,-0.0177,-0.0277,-0.0278,-0.0577,-0.058,-0.0583]}],[{"header":{"parameterUnit":"m.s-1","parameterCategory":2,"la1":30.2991,"la2":30.254,"lo1":-89.0895,"lo2":-89.0444,"dy":0.0017,"dx":0.0017,"nx":28,"ny":28,"refTime":"2023-07-25T03:00:00:Z","depth":"2","parameterNumber":2,"parameterNumberName":"U-component_of_CURRENTS"},"data":[0,0,0,0,0,0,0,0,0,0,0,0,0,0,0,0,0,0,0,0,0,0,0,0,0,0,0,0,0,0,0,0,0,0,0,0,0,0,0,0,0,0,0,0,0,0,0,0,0,0,0,0,0,0,0,0,0,0,0.0807,0.0807,0,0.0872,0.0872,0.0873,0.1009,0.1012,0.1015,0.1018,0.1131,0.1131,0.1132,0,0,0,0,0,0,0,0,0,0,0,0,0,0.0779,0.0778,0.0807,0.0808,0.0808,0.0872,0.0872,0.0873,0.1009,0.1012,0.1016,0.1019,0.1131,0.1131,0.1132,0,0,0,0,0,0,0,0,0,0,0,0,0,0.0811,0.0778,0.0806,0.0884,0.0892,0.0871,0.0872,0.0874,0.1008,0.1013,0.1017,0.1021,0.113,0.1131,0.1132,0.1051,0,0,0.1133,0.1134,0,0,0,0,0,0,0,0,0.0809,0.0812,0.0872,0.0879,0.0887,0.0938,0.0904,0.0935,0.1007,0.0963,0.1018,0.1023,0.1068,0.1074,0.1075,0.1056,0.1061,0.1133,0.1134,0.1134,0.1134,0,0,0,0,0,0,0,0.0807,0.081,0.0832,0.0873,0.0882,0.0909,0.0918,0.091,0.0991,0.0967,0.0978,0.0985,0.1073,0.1074,0.1079,0.1063,0.1133,0.1134,0.1134,0.1135,0.1095,0.1094,0,0,0,0,0,0,0.0796,0.0807,0.083,0.0834,0.0859,0.0906,0.0916,0.0917,0.0991,0.1006,0.0981,0.0991,0.1071,0.1078,0.1083,0.1126,0.1134,0.1135,0.1135,0.1097,0.1095,0.1094,0,0,0,0,0,0,0.0795,0.0797,0.0827,0.0823,0.083,0.0902,0.0901,0.0916,0.0954,0.1001,0.1018,0.101,0.1075,0.1083,0.1097,0.1127,0.1135,0.1135,0.1098,0.1096,0.1094,0.1127,0,0,0,0,0,0,0.0794,0.0796,0.0795,0.0822,0.0829,0.0832,0.0898,0.0914,0.095,0.0965,0.1029,0.1043,0.1078,0.1095,0.1097,0.1128,0.1136,0.11,0.1097,0.1095,0.1127,0.1126,0.1125,0,0,0,0,0,0.0792,0.0769,0.0794,0.0798,0.0824,0.0832,0.0837,0.0903,0.0948,0.0955,0.0998,0.1043,0.1081,0.1094,0.1097,0.1129,0.1101,0.1098,0.1095,0.1128,0.1126,0.1125,0,0,0,0,0,0,0.0749,0.0781,0.081,0.0797,0.0823,0.0856,0.0864,0.0902,0.0938,0.0965,0.1014,0.1027,0.1054,0.106,0.1073,0.1102,0.1101,0.1098,0.1125,0.1124,0.1122,0.1146,0.1136,0,0,0,0,0,0.0735,0.0736,0.0768,0.076,0.0772,0.0818,0.0832,0.0877,0.0909,0.0933,0.0979,0.1013,0.1029,0.1055,0.1064,0.1068,0.108,0.1088,0.1086,0.1086,0.1101,0.1117,0.1121,0.1083,0.1083,0.1083,0,0,0.0716,0.0732,0.0735,0.0752,0.0779,0.0797,0.0839,0.0863,0.0894,0.0932,0.0985,0.1005,0.1022,0.1045,0.1058,0.1068,0.1098,0.1082,0.1082,0.1098,0.1115,0.1119,0.1123,0.1081,0.1081,0.1082,0,0,0.068,0.0693,0.0693,0.0715,0.0757,0.0782,0.0792,0.0841,0.0884,0.0912,0.0953,0.0983,0.1013,0.1042,0.1055,0.1034,0.1082,0.1045,0.1079,0.1094,0.1099,0.1103,0.1119,0.1125,0.1057,0.1057,0.1057,0,0.0666,0.0668,0.0691,0.0705,0.0728,0.0778,0.0795,0.0824,0.0878,0.0909,0.0939,0.0994,0.1013,0.1044,0.1057,0.104,0.106,0.1095,0.1098,0.1102,0.1106,0.1122,0.1128,0.1059,0.1058,0.1058,0.1058,0,0.0636,0.0655,0.0652,0.0695,0.0714,0.0731,0.0781,0.0818,0.0874,0.0917,0.097,0.0992,0.1041,0.1044,0.1057,0.1094,0.1102,0.1089,0.1115,0.1113,0.1128,0.1134,0.106,0.106,0.106,0.1059,0,0,0.0578,0.0627,0.0634,0.0665,0.0719,0.0732,0.0776,0.0828,0.0875,0.0933,0.0993,0.1025,0.1069,0.1082,0.1102,0.1124,0.1166,0.1137,0.1137,0.1178,0.1218,0.1271,0.1282,0.1172,0.1173,0.1174,0.1218,0,0.0564,0.0587,0.0617,0.0654,0.0676,0.0736,0.0772,0.0829,0.0891,0.0956,0.1003,0.106,0.1073,0.1117,0.114,0.1163,0.1184,0.1156,0.1193,0.1194,0.1263,0.1291,0.1108,0.1138,0.1223,0.1224,0.1225,0,0.0539,0.0561,0.0594,0.0658,0.0674,0.0708,0.0789,0.0831,0.0921,0.0976,0.105,0.1098,0.1162,0.116,0.122,0.1213,0.1225,0.123,0.1232,0.128,0.1259,0.1151,0.1145,0.1234,0.1234,0.1233,0.1232,0,0.0499,0.0551,0.0579,0.0602,0.0673,0.0713,0.0763,0.0849,0.0895,0.1008,0.1062,0.1138,0.1198,0.1226,0.1281,0.1259,0.1337,0.1293,0.1341,0.1344,0.1195,0.1184,0.1317,0.1317,0.1317,0.1317,0.1316,0,0.0473,0.0499,0.0572,0.059,0.0637,0.0702,0.0769,0.0833,0.0927,0.0993,0.1084,0.1152,0.1224,0.1287,0.1303,0.1373,0.1359,0.1368,0.137,0.1199,0.1189,0.1273,0.1268,0.1318,0.1318,0.1318,0.1317,0,0.043,0.0476,0.0513,0.0593,0.0623,0.0665,0.0769,0.0816,0.0916,0.1008,0.1054,0.118,0.1306,0.1367,0.1427,0.1415,0.1454,0.1468,0.1281,0.1263,0.1435,0.143,0.1518,0.152,0.1522,0.1524,0.1526,0,0.0411,0.0425,0.0506,0.0538,0.0583,0.0656,0.0706,0.0808,0.0865,0.1025,0.1066,0.123,0.1361,0.1493,0.1521,0.1581,0.1559,0.1396,0.1319,0.1469,0.1461,0.1452,0.1445,0.1111,0.1109,0.1108,0.1106,0,0.0369,0.0405,0.0436,0.0499,0.0559,0.0615,0.0704,0.0743,0.0875,0.097,0.1124,0.1249,0.143,0.1461,0.1554,0.1525,0.1382,0.137,0.1559,0.112,0.1098,0.1087,0.1089,0.1091,0.1093,0.1094,0.1095,0.1095,0.034,0.0352,0.0401,0.0462,0.052,0.0587,0.0635,0.0739,0.084,0.1005,0.1124,0.1251,0.1286,0.1395,0.1407,0.137,0.1445,0.1273,0.1272,0.1273,0.125,0.1237,0.125,0.1253,0.1255,0.1256,0.1258,0,0.0303,0.033,0.0367,0.0432,0.0476,0.0543,0.0635,0.0685,0.0815,0.0979,0.1149,0.1037,0.1121,0.1167,0.1124,0.1156,0.1074,0.1066,0.0908,0.0922,0.0935,0.0889,0.0796,0.0796,0.0796,0.0795,0,0,0.0283,0.0301,0.0323,0.0377,0.0441,0.0508,0.057,0.0665,0.0769,0.0861,0.0906,0.1097,0.1105,0.0938,0.0937,0.0882,0.0899,0.0834,0.1187,0.1015,0.1028,0.1022,0.0965,0,0,0,0,0]},{"header":{"parameterUnit":"m.s-1","parameterCategory":2,"la1":30.2991,"la2":30.254,"lo1":-89.0895,"lo2":-89.0444,"dy":0.0017,"dx":0.0017,"nx":28,"ny":28,"refTime":"2023-07-25T03:00:00:Z","depth":"2","parameterNumber":3,"parameterNumberName":"V-component_of_CURRENTS"},"data":[0,0,0,0,0,0,0,0,0,0,0,0,0,0,0,0,0,0,0,0,0,0,0,0,0,0,0,0,0,0,0,0,0,0,0,0,0,0,0,0,0,0,0,0,0,0,0,0,0,0,0,0,0,0,0,0,0,0,-0.0607,-0.0608,0,-0.0688,-0.0688,-0.0689,-0.0752,-0.0753,-0.0754,-0.0754,-0.0851,-0.0853,-0.0855,0,0,0,0,0,0,0,0,0,0,0,0,0,-0.0487,-0.0489,-0.0607,-0.0608,-0.061,-0.0687,-0.0688,-0.0689,-0.0752,-0.0753,-0.0754,-0.0755,-0.085,-0.0853,-0.0855,0,0,0,0,0,0,0,0,0,0,0,0,0,-0.0548,-0.049,-0.0607,-0.0652,-0.0657,-0.0687,-0.0688,-0.0689,-0.0752,-0.0753,-0.0754,-0.0755,-0.085,-0.0852,-0.0855,-0.0847,0,0,-0.0863,-0.0864,0,0,0,0,0,0,0,0,-0.0545,-0.0552,-0.0644,-0.0649,-0.0655,-0.0713,-0.0682,-0.0744,-0.0751,-0.0713,-0.0754,-0.0756,-0.0807,-0.0813,-0.0822,-0.0851,-0.0856,-0.0864,-0.0865,-0.0866,-0.0867,0,0,0,0,0,0,0,-0.054,-0.0549,-0.0637,-0.0645,-0.0652,-0.0661,-0.0671,-0.0693,-0.0751,-0.0717,-0.0722,-0.0734,-0.081,-0.0819,-0.0825,-0.0857,-0.0863,-0.0866,-0.0868,-0.0869,-0.0942,-0.0942,0,0,0,0,0,0,-0.0535,-0.0545,-0.0634,-0.0639,-0.0604,-0.0663,-0.0674,-0.0691,-0.075,-0.0761,-0.0733,-0.0737,-0.0814,-0.0822,-0.0829,-0.085,-0.0866,-0.0869,-0.087,-0.0942,-0.0942,-0.0942,0,0,0,0,0,0,-0.0532,-0.0543,-0.0631,-0.0596,-0.0608,-0.0664,-0.0683,-0.0692,-0.072,-0.0763,-0.0774,-0.0754,-0.0815,-0.0825,-0.086,-0.0853,-0.087,-0.0873,-0.0941,-0.0942,-0.0942,-0.0875,0,0,0,0,0,0,-0.0529,-0.0541,-0.0552,-0.0595,-0.061,-0.0647,-0.0682,-0.0693,-0.0726,-0.0732,-0.0784,-0.0793,-0.0817,-0.0856,-0.0863,-0.0857,-0.0875,-0.0941,-0.0941,-0.0942,-0.0877,-0.0874,-0.0871,0,0,0,0,0,-0.0524,-0.0528,-0.0552,-0.0563,-0.0624,-0.0647,-0.0654,-0.0696,-0.0725,-0.0728,-0.0771,-0.0792,-0.0865,-0.0858,-0.0866,-0.0861,-0.0941,-0.0941,-0.0942,-0.0879,-0.0874,-0.0871,0,0,0,0,0,0,-0.0475,-0.0537,-0.0564,-0.0586,-0.0616,-0.0659,-0.0668,-0.07,-0.0736,-0.0749,-0.0793,-0.0805,-0.0833,-0.0861,-0.0852,-0.0887,-0.0907,-0.091,-0.0857,-0.0853,-0.0849,-0.0811,-0.0877,0,0,0,0,0,-0.0471,-0.0496,-0.0547,-0.0562,-0.0579,-0.0627,-0.0645,-0.0674,-0.0711,-0.073,-0.0768,-0.081,-0.0838,-0.0857,-0.0885,-0.0902,-0.0911,-0.0908,-0.0904,-0.0901,-0.0877,-0.09,-0.0896,-0.0945,-0.0945,-0.0945,0,0,-0.0455,-0.0493,-0.0506,-0.0554,-0.0584,-0.059,-0.064,-0.0665,-0.067,-0.0733,-0.0755,-0.0799,-0.0841,-0.0859,-0.0874,-0.0884,-0.0891,-0.0902,-0.0898,-0.0876,-0.09,-0.0895,-0.0891,-0.0945,-0.0945,-0.0945,0,0,-0.0422,-0.047,-0.0476,-0.0499,-0.0545,-0.057,-0.058,-0.063,-0.0653,-0.0681,-0.0726,-0.0764,-0.0813,-0.0835,-0.0853,-0.0849,-0.0872,-0.087,-0.0819,-0.0843,-0.0838,-0.0834,-0.0825,-0.0821,-0.0869,-0.0868,-0.0868,0,-0.0399,-0.0418,-0.0476,-0.0481,-0.0492,-0.0559,-0.055,-0.0578,-0.0632,-0.0641,-0.0681,-0.0749,-0.0794,-0.0803,-0.0806,-0.0838,-0.0847,-0.0828,-0.0835,-0.0831,-0.0828,-0.0821,-0.0817,-0.0865,-0.0866,-0.0866,-0.0866,0,-0.0366,-0.0382,-0.0384,-0.0416,-0.0431,-0.0436,-0.0481,-0.0501,-0.0546,-0.0576,-0.0609,-0.0673,-0.0709,-0.0738,-0.0771,-0.0773,-0.0783,-0.0825,-0.0836,-0.0819,-0.0813,-0.081,-0.0861,-0.0862,-0.0863,-0.0864,0,0,-0.0299,-0.0351,-0.035,-0.035,-0.0397,-0.0399,-0.0408,-0.0426,-0.0422,-0.049,-0.0486,-0.0555,-0.06,-0.0623,-0.0678,-0.0704,-0.0698,-0.075,-0.0753,-0.0724,-0.0724,-0.0683,-0.0676,-0.0746,-0.0746,-0.0746,-0.0722,0,-0.025,-0.0245,-0.0283,-0.026,-0.0255,-0.0308,-0.0301,-0.0328,-0.0367,-0.038,-0.0454,-0.0475,-0.0553,-0.0572,-0.061,-0.0679,-0.069,-0.0699,-0.076,-0.076,-0.0712,-0.0671,-0.0635,-0.0608,-0.072,-0.0719,-0.0719,0,-0.0192,-0.02,-0.0177,-0.0182,-0.0182,-0.0176,-0.0175,-0.018,-0.0218,-0.0247,-0.0291,-0.0353,-0.0397,-0.0473,-0.0558,-0.0562,-0.0625,-0.0681,-0.0682,-0.0659,-0.0713,-0.0649,-0.0599,-0.0715,-0.0715,-0.0715,-0.0716,0,-0.0107,-0.0114,-0.0094,-0.0098,-0.0118,-0.0107,-0.0113,-0.0138,-0.0125,-0.0159,-0.0154,-0.0234,-0.0262,-0.0363,-0.0487,-0.0522,-0.0572,-0.064,-0.0652,-0.0649,-0.0635,-0.0631,-0.0679,-0.0679,-0.0679,-0.0679,-0.0679,0,-0.0032,-0.0011,-0.0055,-0.0041,0.0002,-0.0035,0.001,-0.0008,-0.0014,0.0019,-0.0077,-0.0062,-0.0238,-0.0301,-0.0429,-0.0512,-0.0527,-0.0611,-0.0634,-0.061,-0.0605,-0.0721,-0.0726,-0.0678,-0.0678,-0.0678,-0.0678,0,0.0062,0.0027,0.0054,0.0038,0.0039,0.0071,0.0087,0.0126,0.0107,0.0148,0.0146,0.0077,0.0002,-0.0155,-0.0304,-0.041,-0.0515,-0.0541,-0.048,-0.0496,-0.0589,-0.0592,-0.0542,-0.0541,-0.0539,-0.0538,-0.0537,0,0.0112,0.013,0.0118,0.0141,0.0135,0.0168,0.0202,0.0187,0.0229,0.0242,0.0279,0.0225,0.0217,0.0037,-0.0162,-0.033,-0.0431,-0.0422,-0.0485,-0.0544,-0.0573,-0.0578,-0.0582,-0.0442,-0.044,-0.0439,-0.0438,0,0.0218,0.02,0.0216,0.0245,0.0278,0.0328,0.0368,0.0416,0.0416,0.0457,0.0509,0.0512,0.0362,0.0199,-0.0032,-0.0157,-0.0398,-0.0396,-0.0472,-0.0478,-0.0446,-0.0476,-0.0484,-0.0425,-0.0426,-0.0427,-0.0428,-0.0428,0.0299,0.033,0.0333,0.0366,0.041,0.0485,0.0546,0.0605,0.0684,0.0785,0.0745,0.0737,0.0493,0.0224,0.0025,-0.0219,-0.0241,-0.0371,-0.0377,-0.0384,-0.0372,-0.034,-0.0294,-0.0294,-0.0295,-0.0295,-0.0295,0,0.04,0.0413,0.0459,0.0504,0.0575,0.056,0.0661,0.0747,0.0866,0.0962,0.1047,0.0766,0.0608,0.0298,-0.0027,-0.0201,-0.0232,-0.0284,-0.0319,-0.0329,-0.0338,-0.0327,-0.0236,-0.0236,-0.0237,-0.0237,0,0,0.0459,0.0511,0.0521,0.0637,0.0673,0.0775,0.0836,0.0969,0.1057,0.1134,0.1087,0.1135,0.0672,0.0427,0.017,-0.003,-0.0108,-0.0044,-0.0068,-0.0078,-0.0084,-0.0365,-0.0354,0,0,0,0,0]}],[{"header":{"parameterUnit":"m.s-1","parameterCategory":2,"la1":30.2991,"la2":30.254,"lo1":-89.0895,"lo2":-89.0444,"dy":0.0017,"dx":0.0017,"nx":28,"ny":28,"refTime":"2023-07-25T03:00:00:Z","depth":"4","parameterNumber":2,"parameterNumberName":"U-component_of_CURRENTS"},"data":[0,0,0,0,0,0,0,0,0,0,0,0,0,0,0,0,0,0,0,0,0,0,0,0,0,0,0,0,0,0,0,0,0,0,0,0,0,0,0,0,0,0,0,0,0,0,0,0,0,0,0,0,0,0,0,0,0,0,0.0202,0.0202,0,0.023,0.0231,0.0231,0.0259,0.0259,0.0259,0.026,0.0291,0.0291,0.0291,0,0,0,0,0,0,0,0,0,0,0,0,0,0.0178,0.0178,0.0202,0.0202,0.0202,0.023,0.0231,0.0231,0.0259,0.0259,0.0259,0.026,0.029,0.0291,0.0291,0,0,0,0,0,0,0,0,0,0,0,0,0,0.0195,0.0178,0.0202,0.022,0.0222,0.023,0.0231,0.0231,0.0258,0.0259,0.026,0.026,0.029,0.0291,0.0292,0.0285,0,0,0.0294,0.0294,0,0,0,0,0,0,0,0,0.0194,0.0196,0.0217,0.0218,0.0221,0.0242,0.0234,0.0249,0.0258,0.0244,0.026,0.026,0.0274,0.0276,0.028,0.0286,0.0287,0.0294,0.0294,0.0294,0.0295,0,0,0,0,0,0,0,0.0193,0.0195,0.0213,0.0217,0.0219,0.0229,0.0232,0.0237,0.0255,0.0245,0.0248,0.0251,0.0275,0.0279,0.0281,0.0288,0.0294,0.0294,0.0295,0.0295,0.0226,0.0224,0,0,0,0,0,0,0.0189,0.0194,0.0212,0.0214,0.0209,0.0229,0.0232,0.0234,0.0255,0.0259,0.025,0.0252,0.0278,0.028,0.0282,0.0256,0.0294,0.0295,0.0296,0.0228,0.0225,0.0223,0,0,0,0,0,0,0.0188,0.019,0.0211,0.0205,0.0208,0.0228,0.0231,0.0234,0.026,0.0259,0.0263,0.0274,0.0278,0.0281,0.0301,0.0258,0.0295,0.0296,0.0231,0.0227,0.0224,0.0216,0,0,0,0,0,0,0.0187,0.0189,0.0197,0.0204,0.0208,0.0231,0.023,0.0235,0.026,0.0263,0.0281,0.0283,0.0279,0.03,0.0302,0.026,0.0297,0.0234,0.0229,0.0225,0.0219,0.0213,0.0207,0,0,0,0,0,0.0186,0.0196,0.0197,0.0199,0.0215,0.0231,0.0235,0.0251,0.0261,0.0275,0.0285,0.0283,0.0272,0.0301,0.0303,0.026,0.0236,0.023,0.0226,0.0222,0.0214,0.0208,0,0,0,0,0,0,0.0189,0.0199,0.0201,0.0213,0.0226,0.0236,0.0255,0.0263,0.0282,0.0292,0.029,0.0293,0.0279,0.0274,0.0306,0.0219,0.0238,0.0234,0.0234,0.0227,0.0221,0.0255,0.0297,0,0,0,0,0,0.0191,0.0204,0.0211,0.0224,0.0234,0.0248,0.026,0.027,0.0284,0.0295,0.0298,0.0283,0.0253,0.0252,0.0234,0.0219,0.0249,0.0177,0.0171,0.0166,0.0189,0.0203,0.0202,0.0206,0.0206,0.0206,0,0,0.0194,0.0204,0.0211,0.0227,0.0241,0.0255,0.0258,0.0285,0.0282,0.0294,0.0299,0.0278,0.0245,0.0212,0.0201,0.0211,0.0178,0.016,0.0157,0.0183,0.0198,0.0198,0.0198,0.0203,0.0203,0.0204,0,0,0.0215,0.022,0.0241,0.0254,0.0279,0.0279,0.0291,0.0305,0.03,0.0296,0.0282,0.026,0.0224,0.0195,0.0169,0.0125,0.0148,0.0085,0.0089,0.0101,0.0102,0.0104,0.0145,0.0151,0.0081,0.0081,0.0081,0,0.0222,0.0245,0.025,0.0275,0.0282,0.0292,0.0309,0.0301,0.0314,0.0299,0.0294,0.023,0.021,0.0162,0.0131,0.0115,0.0139,0.0125,0.0099,0.0101,0.0103,0.0145,0.0152,0.008,0.008,0.008,0.008,0,0.0252,0.0277,0.0294,0.0317,0.0321,0.0345,0.0328,0.0324,0.0305,0.0287,0.0242,0.0215,0.018,0.0135,0.012,0.0094,0.0113,0.0097,0.0133,0.0104,0.0148,0.0155,0.0078,0.0079,0.0079,0.0079,0,0,0.0259,0.0306,0.0317,0.0334,0.0347,0.0354,0.0333,0.0312,0.0302,0.027,0.025,0.0171,0.0166,0.0139,0.0109,0.0108,0.0131,0.0108,0.0109,0.0178,0.0186,0.0151,0.0156,0.0114,0.0115,0.0115,0.0215,0,0.0288,0.0345,0.0345,0.0379,0.0401,0.038,0.0354,0.0329,0.0296,0.0279,0.0224,0.0198,0.016,0.0147,0.0137,0.0134,0.0148,0.0108,0.018,0.0183,0.0178,0.0161,0.0118,0.022,0.0222,0.0223,0.0224,0,0.0311,0.0352,0.0395,0.0406,0.041,0.0404,0.037,0.0352,0.0308,0.0284,0.0254,0.0235,0.0218,0.0192,0.0203,0.0181,0.0191,0.0191,0.0194,0.0177,0.016,0.025,0.0237,0.0236,0.0235,0.0234,0.0233,0,0.0319,0.0374,0.0409,0.0421,0.0434,0.041,0.0389,0.0344,0.0338,0.0303,0.0319,0.028,0.0293,0.0279,0.028,0.0246,0.0316,0.0267,0.0255,0.0254,0.0266,0.0263,0.0297,0.0297,0.0296,0.0296,0.0296,0,0.033,0.0364,0.0415,0.0439,0.0446,0.0424,0.0409,0.0379,0.0365,0.0393,0.0338,0.0374,0.0319,0.0348,0.0321,0.0324,0.0355,0.0273,0.0273,0.0257,0.0251,0.0272,0.0268,0.03,0.0299,0.0298,0.0298,0,0.0314,0.0364,0.042,0.0455,0.0454,0.045,0.0438,0.044,0.0421,0.0468,0.0474,0.0469,0.0466,0.043,0.0428,0.0396,0.0387,0.0388,0.0416,0.0415,0.0308,0.0302,0.0363,0.0362,0.0362,0.0362,0.0361,0,0.031,0.0346,0.0435,0.047,0.0479,0.0476,0.0478,0.0459,0.0488,0.0543,0.059,0.059,0.0575,0.0521,0.0489,0.0431,0.0407,0.044,0.0318,0.0318,0.0313,0.0308,0.0302,0.0361,0.0361,0.036,0.036,0,0.0303,0.035,0.0396,0.0478,0.0507,0.0536,0.0546,0.0545,0.0566,0.0626,0.0631,0.0589,0.0585,0.0495,0.0461,0.0427,0.0424,0.0434,0.0433,0.0318,0.0316,0.031,0.0305,0.0359,0.0359,0.0359,0.0359,0,0.0301,0.0325,0.0404,0.0451,0.0532,0.0544,0.0529,0.0544,0.0549,0.0603,0.0637,0.0593,0.061,0.0504,0.0497,0.0424,0.0369,0.0349,0.035,0.0352,0.0292,0.0284,0.0331,0,0,0,0,0,0.0291,0.0302,0.0363,0.0418,0.0512,0.054,0.0579,0.057,0.0618,0.0604,0.0589,0.0565,0.0478,0.0468,0.0366,0.0475,0.0372,0.0365,0.035,0.0351,0.0353,0.0276,0,0,0,0,0,0,0.0281,0.0333,0.034,0.0396,0.043,0.0498,0.0505,0.0523,0.0489,0.0542,0.046,0.0562,0.0443,0.0504,0.0365,0.0364,0.0347,0.0367,0.0366,0.035,0.0351,0.0353,0.0275,0,0,0,0,0]},{"header":{"parameterUnit":"m.s-1","parameterCategory":2,"la1":30.2991,"la2":30.254,"lo1":-89.0895,"lo2":-89.0444,"dy":0.0017,"dx":0.0017,"nx":28,"ny":28,"refTime":"2023-07-25T03:00:00:Z","depth":"4","parameterNumber":3,"parameterNumberName":"V-component_of_CURRENTS"},"data":[0,0,0,0,0,0,0,0,0,0,0,0,0,0,0,0,0,0,0,0,0,0,0,0,0,0,0,0,0,0,0,0,0,0,0,0,0,0,0,0,0,0,0,0,0,0,0,0,0,0,0,0,0,0,0,0,0,0,0.0519,0.052,0,0.0558,0.0559,0.0559,0.0623,0.0624,0.0625,0.0626,0.0738,0.074,0.0742,0,0,0,0,0,0,0,0,0,0,0,0,0,0.0497,0.0497,0.0519,0.052,0.052,0.0558,0.0559,0.056,0.0623,0.0624,0.0626,0.0627,0.0738,0.074,0.0742,0,0,0,0,0,0,0,0,0,0,0,0,0,0.0519,0.0497,0.0519,0.0556,0.056,0.0558,0.0559,0.056,0.0623,0.0624,0.0626,0.0628,0.0737,0.074,0.0743,0.0728,0,0,0.0752,0.0753,0,0,0,0,0,0,0,0,0.0518,0.052,0.055,0.0553,0.0557,0.0587,0.0592,0.0619,0.0622,0.0599,0.0626,0.0628,0.0693,0.0699,0.0703,0.0733,0.0738,0.0752,0.0754,0.0755,0.0756,0,0,0,0,0,0,0,0.0516,0.0518,0.0536,0.055,0.0555,0.0569,0.0574,0.0597,0.0638,0.0602,0.0606,0.0609,0.0696,0.07,0.0706,0.0739,0.0752,0.0754,0.0756,0.0757,0.0738,0.0736,0,0,0,0,0,0,0.0508,0.0517,0.0534,0.0537,0.054,0.0568,0.0574,0.0576,0.0637,0.0647,0.0607,0.0612,0.0694,0.0703,0.0711,0.0707,0.0755,0.0758,0.0759,0.0741,0.0738,0.0736,0,0,0,0,0,0,0.0507,0.0509,0.0533,0.0527,0.0531,0.0567,0.0569,0.0576,0.0612,0.064,0.0652,0.0639,0.0696,0.0707,0.0751,0.0711,0.0759,0.0762,0.0743,0.074,0.0737,0.0692,0,0,0,0,0,0,0.0506,0.0508,0.0517,0.0526,0.0531,0.054,0.0568,0.0576,0.0609,0.0616,0.067,0.0681,0.0698,0.0746,0.0754,0.0716,0.0764,0.0746,0.0742,0.0738,0.0697,0.0688,0.068,0,0,0,0,0,0.0505,0.0504,0.0517,0.052,0.0539,0.054,0.0544,0.0575,0.0609,0.0616,0.066,0.0681,0.0722,0.0749,0.0757,0.072,0.0748,0.0743,0.0738,0.07,0.069,0.0681,0,0,0,0,0,0,0.0499,0.0511,0.0525,0.0529,0.0538,0.0551,0.0568,0.0588,0.0627,0.0652,0.0684,0.0696,0.0708,0.072,0.0748,0.0694,0.0725,0.0722,0.0693,0.0683,0.0675,0.0675,0.0766,0,0,0,0,0,0.0499,0.051,0.0515,0.0524,0.0532,0.0556,0.0568,0.0588,0.0616,0.0637,0.0678,0.0697,0.0684,0.0697,0.0704,0.07,0.07,0.0667,0.0659,0.0652,0.0654,0.0621,0.0611,0.0719,0.0719,0.0719,0,0,0.0496,0.051,0.0514,0.0525,0.0544,0.0544,0.0569,0.0594,0.0592,0.0643,0.0681,0.0689,0.0679,0.0663,0.0665,0.0678,0.0617,0.0646,0.0641,0.0646,0.0615,0.0604,0.0595,0.0715,0.0716,0.0717,0,0,0.0495,0.0515,0.0522,0.0529,0.0556,0.0559,0.057,0.0599,0.0614,0.0633,0.0649,0.0648,0.0661,0.0633,0.0616,0.0568,0.058,0.0553,0.0515,0.0482,0.0474,0.0467,0.0443,0.0434,0.0543,0.0543,0.0543,0,0.0498,0.0504,0.0523,0.0531,0.0533,0.0567,0.0562,0.057,0.0611,0.0608,0.0642,0.0622,0.0632,0.0568,0.0542,0.055,0.0541,0.0559,0.0474,0.0467,0.046,0.0438,0.0428,0.054,0.0541,0.0541,0.0541,0,0.049,0.0505,0.0514,0.053,0.0527,0.0538,0.0537,0.0553,0.0576,0.0575,0.0554,0.056,0.0542,0.0518,0.052,0.0451,0.0463,0.0476,0.0507,0.0447,0.0427,0.0418,0.0536,0.0537,0.0538,0.0539,0,0,0.048,0.0501,0.0513,0.0512,0.0529,0.0521,0.0513,0.0493,0.0487,0.0505,0.0478,0.044,0.0457,0.0436,0.0429,0.0394,0.0336,0.0413,0.0413,0.0404,0.0269,0.0259,0.0249,0.0338,0.0337,0.0335,0.0271,0,0.0476,0.0487,0.049,0.0486,0.0482,0.0488,0.0467,0.0455,0.0455,0.0445,0.0419,0.0404,0.0416,0.0409,0.0372,0.0353,0.0312,0.0353,0.0316,0.0315,0.0326,0.0238,0.033,0.0264,0.0262,0.0261,0.026,0,0.0462,0.0475,0.0474,0.0454,0.0452,0.0448,0.0417,0.0404,0.038,0.0379,0.0358,0.036,0.031,0.0337,0.0267,0.0296,0.0276,0.0259,0.0257,0.0261,0.0289,0.0336,0.0244,0.0245,0.0246,0.0248,0.0249,0,0.0441,0.045,0.045,0.0451,0.044,0.043,0.0418,0.0394,0.0381,0.0354,0.0352,0.0299,0.0289,0.0248,0.023,0.0245,0.0161,0.0177,0.0144,0.0144,0.0198,0.0207,0.0116,0.0116,0.0116,0.0116,0.0116,0,0.0417,0.0418,0.045,0.0455,0.0435,0.0424,0.0402,0.0384,0.0367,0.0361,0.0334,0.0313,0.0269,0.0229,0.0205,0.0147,0.014,0.0118,0.0115,0.0178,0.0185,0.0191,0.0201,0.0114,0.0114,0.0115,0.0115,0,0.038,0.0412,0.0416,0.0431,0.0432,0.0421,0.0411,0.0396,0.0386,0.038,0.0377,0.0316,0.0256,0.0211,0.0139,0.0118,0.0064,0.0048,0.0115,0.0121,0.0072,0.008,-0.0017,-0.0018,-0.0019,-0.002,-0.0021,0,0.0355,0.0366,0.041,0.0424,0.0438,0.0431,0.0427,0.0413,0.0416,0.0388,0.0388,0.0317,0.0282,0.0135,0.0104,0.0027,0.0028,0.0001,0.0027,0.0046,0.0053,0.0063,0.0072,-0.0022,-0.0022,-0.0023,-0.0023,0,0.0308,0.035,0.036,0.0408,0.0427,0.0423,0.0432,0.0419,0.0421,0.0432,0.0357,0.0284,0.0204,0.0107,0.0048,0.0006,0.0015,-0.0009,-0.0007,0.0017,0.0039,0.0049,0.0059,-0.0026,-0.0026,-0.0025,-0.0025,0,0.0285,0.0287,0.0338,0.0364,0.0407,0.041,0.0396,0.0385,0.037,0.0362,0.034,0.0251,0.0214,0.0097,0.0052,-0.0005,-0.0015,-0.0025,-0.0023,-0.0019,0.0009,0.0039,-0.0051,0,0,0,0,0,0.0251,0.0257,0.0283,0.0322,0.0376,0.0406,0.0406,0.0399,0.0417,0.0358,0.0344,0.027,0.0153,0.0088,0.0021,0.0054,-0.0005,-0.0022,-0.0011,-0.0044,-0.004,-0.0006,0,0,0,0,0,0,0.0225,0.0251,0.0263,0.0302,0.0339,0.038,0.0383,0.0381,0.0336,0.0343,0.0254,0.0278,0.0141,0.0197,0.0029,0.0018,0.0018,-0.0056,-0.0058,-0.0046,-0.0043,-0.004,-0.0004,0,0,0,0,0]}]]